Flag for U.S.A. Weather past 2 weeks in Pensacola, Florida, U.S.A.

Now
69 °F

Fog.


Feels Like: 69 °F
Forecast: 40 / 68 °F
Wind: 14 mph from South

Location: Pensacola Regional Airport

Current Time: Mar 5, 2015 at 2:07:13 AM

Latest Report: Mar 5, 2015 at 12:53 AM


Visibility: 5 mi

Pressure: 29.96 "Hg

Humidity: 96%

Dew point: 68 °F

Location of PensacolaLocation

Historic Weather in Pensacola — Graph

°F

Pensacola temperature yesterday

Maximum temperature yesterday: 76 °F (at 1:53 PM)
Minimum temperature yesterday: 62 °F (at 12:53 AM)
Average temperature yesterday: 69 °F

Past Weeks' High & Low Weather Summary

 TemperatureHumidityPressure
High76 °F (Mar 4, 1:53 PM)100% (Feb 22, 11:01 PM)30.48 "Hg (Feb 22, 11:01 PM)
Low28 °F (Feb 19, 5:53 AM)17% (Feb 18, 3:53 PM)29.57 "Hg (Feb 25, 5:53 PM)
Average52 °F76%30.19 "Hg
* Reported Feb 18 12:53 AM — Mar 5 12:53 AM, Pensacola, Weather by CustomWeather, © 2015

Note: Actual official high and low records may vary slightly from our data, if they occured in-between our weather recording intervals... More about our weather records

Advertising

Pensacola weather history for previous 24 hours

 ConditionsComfort  
Time TempWeatherWind HumidityBarometerVisibility
12:53 AM
Thu, Mar 5
69 °FFog.14 mph96%29.96 "Hg5 mi
11:53 PM
Wed, Mar 4
69 °FFog.13 mph96%29.97 "Hg4 mi
10:53 PM70 °FFog.15 mph97%29.98 "Hg5 mi
9:53 PM70 °FFog.17 mph97%29.98 "Hg6 mi
8:53 PM70 °FFog.14 mph97%29.98 "Hg5 mi
7:53 PM70 °FLow clouds.13 mph93%29.98 "Hg7 mi
6:53 PM69 °FLow clouds.10 mph96%29.97 "Hg7 mi
5:53 PM70 °FLow clouds.10 mph90%29.97 "Hg8 mi
5:00 PM71 °FMostly cloudy.12 mph87%29.96 "Hg10 mi
4:53 PM71 °FPassing clouds.13 mph87%29.96 "Hg10 mi
3:53 PM74 °FMore clouds than sun.16 mph79%29.98 "Hg10 mi
2:53 PM76 °FBroken clouds.18 mph74%29.99 "Hg10 mi
1:53 PM76 °FMostly cloudy.15 mph77%30.00 "Hg10 mi
1:00 PM75 °FMostly cloudy.18 mph76%30.01 "Hg10 mi
11:58 AM75 °FPartly sunny.15 mph76%30.03 "Hg10 mi
10:53 AM72 °FLow clouds.14 mph84%30.07 "Hg5 mi
9:53 AM67 °FFog.13 mph97%30.08 "Hg0 mi
8:53 AM65 °FFog.9 mph100%30.08 "Hg0 mi
7:53 AM66 °FFog.9 mph100%30.06 "Hg0 mi
6:53 AM66 °FFog.8 mph96%30.05 "Hg0 mi
6:01 AM65 °FFog.8 mph100%30.03 "Hg1 mi
5:02 AM65 °FFog.6 mph97%30.03 "Hg0 mi
4:53 AM64 °FFog.8 mph100%30.03 "Hg1 mi
3:53 AM64 °FFog.10 mph97%30.03 "Hg0 mi
3:00 AM64 °FFog.10 mph100%30.03 "Hg4 mi
2:00 AM64 °FFog.9 mph97%30.04 "Hg5 mi
Weather by CustomWeather, © 2015

See weather overviewHow to use our weather pages